This demonstration page uses our WeatherBlox Daily Observations layout. Learn more.

39.08367, -84.50855

Hourly Observations for June 17, 2019

Temp ( °F °C ) Dew Point ( °F °C ) Humidity (%) Winds ( mph kmh ) Pressure ( in mb ) Visibility ( mi km ) Precip ( " mm )
12:53 am 00:53 Partly Cloudy with Light Rain 67 19.4 66 18.9 97 97 E 3 6 29.88 1012 10 16.09344 0.07 1.778
1:53 am 01:53 Partly Cloudy with Light Rain 67 19.4 66 18.9 97 97 S 5 7 29.91 1013 10 16.09344 0.01 0.254
2:53 am 02:53 Mostly Clear with Light Rain 67 19.4 65 18.3 93 93 S 6 9 29.91 1013 10 16.09344 0.001 0.001
3:31 am 03:31 Mostly Cloudy with Light Rain 67 19.4 65 18.3 93 93 Calm 29.91 1013 10 16.09344 0.001 0.001
3:53 am 03:53 Partly Cloudy with Light Rain 67 19.4 65 18.3 93 93 Calm 29.88 1012 10 16.09344 0.01 0.254
4:40 am 04:40 Mostly Cloudy 67 19.4 65 18.3 93 93 S 3 6 29.91 1013 10 16.09344 0.001 0.001
4:53 am 04:53 Cloudy 67 19.4 65 18.3 93 93 SSW 5 7 29.91 1013 10 16.09344 0.001 0.001
5:53 am 05:53 Cloudy with Light Rain 67 19.4 66 18.9 97 97 S 7 11 29.91 1013 5 8.04672 0.05 1.27
6:22 am 06:22 Cloudy 67 19.4 66 18.9 97 97 SW 3 6 29.94 1014 10 16.09344 0.001 0.001
6:53 am 06:53 Cloudy 67 19.4 66 18.9 97 97 Calm 29.94 1014 10 16.09344 0.001 0.001
7:53 am 07:53 Cloudy 68 20 67 19.4 96 96 SSW 5 7 29.97 1015 10 16.09344 0 0
8:12 am 08:12 Mostly Cloudy 69 20.6 67 19.4 93 93 S 5 7 29.97 1015 10 16.09344 0 0
8:53 am 08:53 Mostly Sunny 70 21.1 67 19.4 90 90 S 5 7 29.97 1015 10 16.09344 0 0
9:21 am 09:21 Cloudy 70 21.1 67 19.4 90 90 S 6 9 29.97 1015 10 16.09344 0 0
9:42 am 09:42 Cloudy 71 21.7 68 20 90 90 Calm 29.97 1015 10 16.09344 0 0
9:53 am 09:53 Mostly Cloudy 72 22.2 68 20 87 87 S 6 9 29.97 1015 10 16.09344 0 0
10:53 am 10:53 Mostly Cloudy 74 23.3 69 20.6 85 85 S 5 7 29.97 1015 10 16.09344 0 0
11:23 am 11:23 Cloudy 74 23.3 69 20.6 85 85 S 9 15 29.97 1015 10 16.09344 0 0
11:53 am 11:53 Mostly Cloudy 75 23.9 70 21.1 84 84 SSE 6 9 29.97 1015 10 16.09344 0 0
12:53 pm 12:53 Mostly Cloudy 78 25.6 70 21.1 76 76 SE 3 6 29.97 1015 10 16.09344 0 0
1:39 pm 13:39 Mostly Cloudy 81 27.2 70 21.1 69 69 VRB 3 6 29.94 1014 10 16.09344 0 0
1:53 pm 13:53 Mostly Cloudy 81 27.2 71 21.7 72 72 VRB 3 6 29.94 1014 10 16.09344 0 0
2:50 pm 14:50 Cloudy 81 27 72 22 74 74 VRB 3 6 29.94 1014 10 16.09344 0.001 0.001
2:53 pm 14:53 Cloudy 80 26.7 71 21.7 74 74 WSW 7 11 29.94 1014 10 16.09344 0.001 0.001
3:53 pm 15:53 Mostly Cloudy 81 27.2 71 21.7 72 72 SSW 10 17 29.94 1014 10 16.09344 0.001 0.001
4:51 pm 16:51 Mostly Cloudy 82 28 70 21 66 66 SSW 10 17 29.91 1013 10 16.09344 0 0
4:53 pm 16:53 Mostly Cloudy 81 27.2 69 20.6 67 67 SSW 9 15 29.91 1013 10 16.09344 0 0
5:53 pm 17:53 Partly Cloudy 81 27.2 70 21.1 69 69 S 9 15 29.88 1012 10 16.09344 0 0
6:53 pm 18:53 Partly Cloudy 79 26.1 71 21.7 77 77 S 8 13 29.88 1012 10 16.09344 0 0
7:44 pm 19:44 Mostly Cloudy with Thunderstorms 76 24.4 71 21.7 85 85 ESE 3 6 29.91 1013 10 16.09344 0 0
7:53 pm 19:53 Cloudy with Light Thunderstorms 76 24.4 72 22.2 88 88 Calm 29.91 1013 10 16.09344 0.001 0.001
8:05 pm 20:05 Windy with Storms Likely 74 23.3 71 21.7 91 91 W 28 44 29.94 1014 2.5 4.02336 0.1 2.54
8:13 pm 20:13 Cloudy with Heavy Thunderstorms 69 20.6 68 20 96 96 VRB 6 9 29.94 1014 0.5 0.804672 0.46 11.684
8:17 pm 20:17 Cloudy with Light Thunderstorms 68 20 68 20 100 100 W 9 15 29.94 1014 5 8.04672 0.48 12.192
8:41 pm 20:41 Mostly Cloudy with Nearby Thunderstorms 68 20 66 18.9 93 93 Calm 29.94 1014 10 16.09344 0.48 12.192
8:50 pm 20:50 Mostly Cloudy with Light Rain 68 20 64 18 88 88 VRB 3 6 29.94 1014 10 16.09344 0.48 12.192
8:53 pm 20:53 Mostly Cloudy with Light Rain 68 20 66 18.9 93 93 Calm 29.94 1014 10 16.09344 0.49 12.446
9:53 pm 21:53 Partly Cloudy 67 19.4 66 18.9 97 97 SW 3 6 29.91 1013 10 16.09344 0.01 0.254
10:53 pm 22:53 Mostly Cloudy 67 19.4 66 18.9 97 97 Calm 29.94 1014 10 16.09344 0.001 0.001
11:53 pm 23:53 Mostly Cloudy 68 20 66 18.9 93 93 Calm 29.97 1015 10 16.09344 0 0

Powered by AerisWeather